EW4074 Weather Reports


time (UTC)temp
C
wind
direction
speed
KPH
gust
KPH
rain 1hr
cm
rain 24hr
cm
rain mn
cm
humidity
%
barometer
mb
20260504070354 5 281 0.0 1.6 0.00 0.00 0.00 91 1042.5
20260504060238 3 281 0.0 0.0 0.00 0.00 0.00 93 1042.8
20260504050731 2 281 0.0 1.6 0.00 0.00 0.00 92 1043.1
20260504050232 1 281 0.0 1.6 0.00 0.00 0.00 92 1043.1
20260504045725 1 281 0.0 0.0 0.00 0.00 0.00 91 1043.1
20260504045213 1 281 0.0 0.0 0.00 0.00 0.00 90 1043.1
20260504044711 1 281 0.0 0.0 0.00 0.00 0.00 90 1043.3
20260504044430 2 281 0.0 0.0 0.00 0.00 0.00 90 1043.3
20260504043711 2 281 0.0 0.0 0.00 0.00 0.00 90 1043.3
20260504043212 2 281 0.0 0.0 0.00 0.00 0.00 90 1043.2
20260504042711 2 281 0.0 0.0 0.00 0.00 0.00 90 1043.2
20260504042442 2 281 0.0 0.0 0.00 0.00 0.00 90 1043.2
20260504041715 2 281 0.0 0.0 0.00 0.00 0.00 90 1043.3
20260504041216 2 281 0.0 0.0 0.00 0.00 0.00 89 1043.3
20260504040708 2 281 0.0 0.0 0.00 0.00 0.00 89 1043.3
20260504040414 2 281 0.0 0.0 0.00 0.00 0.00 89 1043.3
20260504035645 2 281 0.0 0.0 0.00 0.00 0.00 89 1043.3
20260504035132 2 281 0.0 1.6 0.00 0.00 0.00 89 1043.3
20260504034621 2 281 0.0 1.6 0.00 0.00 0.00 89 1042.9
20260504034110 2 250 0.0 0.0 0.00 0.00 0.00 89 1042.9
20260504033608 2 250 0.0 0.0 0.00 0.00 0.00 88 1043.0
20260504033326 3 250 0.0 0.0 0.00 0.00 0.00 87 1043.0
20260504032556 3 250 0.0 0.0 0.00 0.00 0.00 86 1043.0
20260504032049 3 250 0.0 0.0 0.00 0.00 0.00 86 1042.9
20260504031802 3 250 0.0 0.0 0.00 0.00 0.00 86 1042.9
20260504031301 3 250 0.0 0.0 0.00 0.00 0.00 85 1042.9
20260504030530 3 250 0.0 0.0 0.00 0.00 0.00 84 1042.9
20260504030024 3 250 0.0 0.0 0.00 0.00 0.00 84 1042.9
20260504025511 3 250 0.0 0.0 0.00 0.00 0.00 83 1042.9
20260504025012 3 250 0.0 0.0 0.00 0.00 0.00 83 1042.9
20260504024507 4 250 0.0 0.0 0.00 0.00 0.00 84 1042.9
20260504023956 4 250 0.0 0.0 0.00 0.00 0.00 84 1042.9
20260504023454 4 250 0.0 0.0 0.00 0.00 0.00 84 1042.8
20260504022949 4 250 0.0 0.0 0.00 0.00 0.00 82 1042.8
20260504022705 4 250 0.0 0.0 0.00 0.00 0.00 82 1042.8
20260504022204 5 250 0.0 0.0 0.00 0.00 0.00 82 1042.7
20260504021431 5 250 0.0 0.0 0.00 0.00 0.00 82 1042.7
20260504020925 5 250 0.0 0.0 0.00 0.00 0.00 82 1042.7
20260504020410 5 250 0.0 0.0 0.00 0.00 0.00 81 1042.4
20260504015913 5 250 0.0 0.0 0.00 0.00 0.00 79 1042.4
20260504015630 5 250 0.0 0.0 0.00 0.00 0.00 80 1042.4
20260504014901 5 250 0.0 0.0 0.00 0.00 0.00 77 1042.6
20260504014354 5 250 0.0 0.0 0.00 0.00 0.00 77 1042.6
20260504013849 5 250 0.0 0.0 0.00 0.00 0.00 77 1042.6
20260504013343 6 250 0.0 0.0 0.00 0.00 0.00 73 1042.3
20260504012832 6 250 0.0 0.0 0.00 0.00 0.00 73 1042.3
20260504012549 6 250 0.0 0.0 0.00 0.00 0.00 72 1042.3
20260504011817 6 250 0.0 0.0 0.00 0.00 0.00 72 1042.3
20260504011311 6 250 0.0 0.0 0.00 0.00 0.00 72 1042.3
20260504010813 7 250 0.0 0.0 0.00 0.00 0.00 71 1042.3
20260504010306 7 250 0.0 0.0 0.00 0.00 0.00 69 1042.3
20260504005801 7 250 0.0 0.0 0.00 0.00 0.00 66 1042.3
20260504005733 7 250 0.0 0.0 0.00 0.00 0.00 67 1042.3
20260504004749 8 250 0.0 0.0 0.00 0.00 0.00 67 1042.3
20260504004236 8 250 0.0 0.0 0.00 0.00 0.00 67 1042.3
20260504003737 8 250 0.0 0.0 0.00 0.00 0.00 66 1042.3
20260504003231 9 250 0.0 0.0 0.00 0.00 0.00 60 1042.2
20260504002725 10 250 0.0 0.0 0.00 0.00 0.00 58 1042.2
20260504002214 10 250 0.0 0.0 0.00 0.00 0.00 58 1042.2
20260504001927 10 250 0.0 0.0 0.00 0.00 0.00 58 1042.2
20260504001206 11 250 0.0 0.0 0.00 0.00 0.00 53 1042.2
20260504000920 11 250 0.0 3.2 0.00 0.00 0.00 53 1042.2
20260504000154 12 250 0.0 3.2 0.00 0.00 0.00 50 1042.1
20260503235648 12 241 0.0 1.6 0.00 0.00 0.00 50 1042.1
20260503235142 13 241 0.0 1.6 0.00 0.00 0.00 48 1042.1
20260503234636 13 240 0.0 1.6 0.00 0.00 0.00 45 1041.8
20260503234212 13 271 0.0 1.6 0.00 0.00 0.00 43 1041.8
20260503233114 14 229 0.0 8.0 0.00 0.00 0.00 42 1041.8
20260503232613 14 275 1.6 8.0 0.00 0.00 0.00 42 1041.8
20260503232106 15 94 1.6 6.4 0.00 0.00 0.00 42 1041.7
20260503231600 15 277 1.6 9.7 0.00 0.00 0.00 40 1041.7
20260503231312 15 252 3.2 16.1 0.00 0.00 0.00 40 1041.7
20260503230548 15 227 3.2 16.1 0.00 0.00 0.00 39 1041.8
20260503230042 15 161 3.2 9.7 0.00 0.00 0.00 40 1041.8
20260503225532 16 232 3.2 9.7 0.00 0.00 0.00 39 1041.8
20260503225030 16 262 3.2 9.7 0.00 0.00 0.00 37 1041.6
20260503224744 16 240 1.6 9.7 0.00 0.00 0.00 37 1041.6
20260503224237 16 316 1.6 8.0 0.00 0.00 0.00 38 1041.6
20260503223555 16 116 3.2 8.0 0.00 0.00 0.00 37 1041.7
20260503222501 16 292 3.2 11.3 0.00 0.00 0.00 36 1041.7
20260503221954 16 270 4.8 17.7 0.00 0.00 0.00 37 1041.8
20260503221711 16 217 6.4 17.7 0.00 0.00 0.00 37 1041.8
20260503220942 16 274 4.8 14.5 0.00 0.00 0.00 36 1041.8
20260503220436 16 205 4.8 16.1 0.00 0.00 0.00 38 1041.9
20260503215931 16 279 4.8 16.1 0.00 0.00 0.00 37 1041.9
20260503215421 16 290 6.4 17.7 0.00 0.00 0.00 37 1041.9
20260503214918 16 251 4.8 17.7 0.00 0.00 0.00 37 1041.9
20260503214412 16 335 4.8 11.3 0.00 0.00 0.00 36 1041.9
20260503214132 16 267 4.8 12.9 0.00 0.00 0.00 36 1041.9
20260503213400 16 234 6.4 19.3 0.00 0.00 0.00 38 1041.8
20260503212855 16 260 6.4 19.3 0.00 0.00 0.00 36 1041.8
20260503212348 16 197 4.8 20.9 0.00 0.00 0.00 36 1041.8
20260503211842 16 238 6.4 19.3 0.00 0.00 0.00 38 1041.8
20260503211341 16 307 6.4 20.9 0.00 0.00 0.00 37 1041.8
20260503210841 16 236 6.4 20.9 0.00 0.00 0.00 37 1041.8
20260503210341 16 245 6.4 20.9 0.00 0.00 0.00 38 1041.8
20260503205841 16 122 6.4 19.3 0.00 0.00 0.00 39 1041.8
20260503205341 16 205 4.8 14.5 0.00 0.00 0.00 37 1041.8
20260503204840 16 267 6.4 20.9 0.00 0.00 0.00 38 1041.8
20260503204344 16 84 6.4 20.9 0.00 0.00 0.00 38 1041.8
20260503203844 16 239 4.8 16.1 0.00 0.00 0.00 37 1041.8
20260503203338 16 224 4.8 16.1 0.00 0.00 0.00 41 1042.0
20260503203046 16 223 4.8 9.7 0.00 0.00 0.00 38 1042.0
20260503202314 16 71 4.8 17.7 0.00 0.00 0.00 38 1042.0
20260503201807 16 166 3.2 17.7 0.00 0.00 0.00 38 1042.1
20260503201254 16 261 4.8 12.9 0.00 0.00 0.00 38 1042.1
20260503200753 16 39 6.4 17.7 0.00 0.00 0.00 39 1042.1
20260503200247 16 65 4.8 17.7 0.00 0.00 0.00 38 1042.3
20260503195742 16 218 3.2 14.5 0.00 0.00 0.00 40 1042.3
20260503195236 16 108 3.2 14.5 0.00 0.00 0.00 39 1042.3
20260503194726 16 49 4.8 12.9 0.00 0.00 0.00 38 1042.7
20260503194224 16 271 6.4 16.1 0.00 0.00 0.00 39 1042.7
20260503193717 16 348 4.8 16.1 0.00 0.00 0.00 38 1042.7
20260503193211 16 238 4.8 14.5 0.00 0.00 0.00 39 1042.8
20260503192705 16 224 6.4 20.9 0.00 0.00 0.00 38 1042.8
20260503192159 16 248 6.4 20.9 0.00 0.00 0.00 38 1042.8
20260503191654 16 236 4.8 20.9 0.00 0.00 0.00 39 1042.9
20260503191142 15 79 4.8 20.9 0.00 0.00 0.00 38 1042.9
20260503190641 15 192 3.2 14.5 0.00 0.00 0.00 37 1042.9
20260503190135 15 81 6.4 16.1 0.00 0.00 0.00 36 1043.0
20260503185629 15 281 6.4 16.1 0.00 0.00 0.00 38 1043.0
20260503185125 15 298 6.4 20.9 0.00 0.00 0.00 42 1043.3
20260503184618 15 304 8.0 20.9 0.00 0.00 0.00 40 1043.3
20260503184328 15 278 6.4 19.3 0.00 0.00 0.00 42 1043.3
20260503183605 15 247 4.8 20.9 0.00 0.00 0.00 38 1043.4
20260503183059 15 221 6.4 20.9 0.00 0.00 0.00 40 1043.4
20260503182549 15 229 6.4 16.1 0.00 0.00 0.00 40 1043.4
20260503182311 15 126 6.4 16.1 0.00 0.00 0.00 42 1043.5
20260503181541 14 250 4.8 14.5 0.00 0.00 0.00 43 1043.5
20260503181035 14 232 4.8 12.9 0.00 0.00 0.00 42 1043.5
20260503180530 14 206 6.4 20.9 0.00 0.00 0.00 42 1043.5
20260503180020 14 281 6.4 20.9 0.00 0.00 0.00 43 1043.5
20260503175517 14 290 4.8 17.7 0.00 0.00 0.00 43 1043.5
20260503175012 14 247 6.4 19.3 0.00 0.00 0.00 42 1043.9
20260503174506 14 219 6.4 20.9 0.00 0.00 0.00 45 1043.9
20260503174000 14 223 6.4 20.9 0.00 0.00 0.00 45 1043.9
20260503173453 14 225 4.8 12.9 0.00 0.00 0.00 45 1043.8
20260503172948 13 296 4.8 14.5 0.00 0.00 0.00 43 1043.8
20260503172653 13 211 6.4 14.5 0.00 0.00 0.00 45 1043.8
20260503171936 13 252 6.4 16.1 0.00 0.00 0.00 42 1043.9
20260503171430 13 227 6.4 24.1 0.00 0.00 0.00 45 1043.9
20260503170924 13 260 4.8 12.9 0.00 0.00 0.00 45 1043.9
20260503170418 13 149 4.8 19.3 0.00 0.00 0.00 46 1044.4
20260503170130 13 89 6.4 19.3 0.00 0.00 0.00 44 1044.4
20260503150730 11 211 4.8 12.9 0.00 0.00 0.00 53 1045.2
20260503150227 11 267 4.8 17.7 0.00 0.00 0.00 54 1045.1
20260503140140 9 228 3.2 17.7 0.00 0.00 0.00 60 1045.4
20260503131039 8 74 4.8 14.5 0.00 0.00 0.00 65 1045.5
20260503130624 8 109 6.4 17.7 0.00 0.00 0.00 65 1045.5
20260503110810 -1 306 0.0 0.0 0.00 0.00 0.00 96 1044.6
20260503110309 -1 306 0.0 0.0 0.00 0.00 0.00 96 1044.4
20260503100158 0 306 0.0 0.0 0.00 0.00 0.00 95 1043.6
20260503081546 1 306 0.0 0.0 0.00 0.00 0.00 91 1043.1
20260503081043 1 306 0.0 0.0 0.00 0.00 0.00 91 1043.1
20260503080801 1 306 0.0 0.0 0.00 0.00 0.00 91 1042.9
20260503072749 1 306 0.0 0.0 0.00 0.00 0.00 93 1042.8